User: anonymous   Login
Location: Sternwarte Stuttgart
(48.7670°N, 9.1830°E)
Time: 01:40:50
(UTC+02:00)
Language:

ERBS - Orbit

View from above orbital plane
View from above orbital plane
View from above satellite
View from above satellite

Ground track
Ground track

The orbit data is extracted from the following two-line orbital elements,

1 15354U 84108B   19293.48825539  .00002495  00000-0  54345-4 0  9992
2 15354  57.0075  41.7077 0005981 336.3542  23.7239 15.48329909930490
Epoch (UTC): 20 October 2019 11:43:05
Eccentricity: 0.0005981
inclination: 57.0075°
perigee height: 417 km
apogee height: 425 km
right ascension of ascending node: 41.7077°
argument of perigee: 336.3542°
revolutions per day: 15.48329909
mean anomaly at epoch: 23.7239°
orbit number at epoch: 93049

The dashed part of the orbit path shows where the satellite is in the earth's shadow,  

DLR